Location: Atherton
(17.2661°S, 145.4859°E)
Time: 12:54:09
(UTC+10:00)

Vanguard 1 - Pass Details

Date: 25 June 2025
Orbit: 649 x 3822 km, 34.2° (Epoch: 05 July)

Event Time Altitude Azimuth Distance (km) Brightness Sun altitude
Rises 21:02:09 0° 267° (W) 6,787 15.1 -43.2°
Reaches altitude 10° 21:08:08 10° 258° (WSW) 5,212 14.2 -44.6°
Enters shadow 21:17:58 30° 216° (SW) 2,838 12.4 -46.9°
Maximum altitude 21:19:38 31° 201° (SSW) 2,612 - -47.3°
Drops below altitude 10° 21:26:35 10° 139° (SE) 3,100 - -48.8°
Sets 21:29:10 0° 127° (SE) 3,766 - -49.4°
